THAICOM 8

Last updated on Thu Nov 21 2024 00:02:43 GMT+0000 (Coordinated Universal Time)

1 41552U 16031A 24325.07688414 -.00000121 00000+0 00000+0 0 9995 2 41552 0.0557 34.5579 0003738 236.1409 255.0892 1.00272464 30960
UTC large
Height (km)
Speed (km/s)
/
Latitude / Longitude
Inclination (degrees)
Orbital Period (minutes)
Azimuth
Elevation
Range (km)
Doppler Factor

Next 0 passes for location: London (51.5072 / 0.1276)

Sorry there are no passes over London.